Wind_Speed
9 9 9 9 9 9 10 10 10 10 11 11 11 12 13 13 13 13 13 13 12 12 13 13 14 14 14 14 14 14 14 14 14 14 14 14 14 14 14 14 13 13 14 14
10 10 10 10 10 10 11 11 10 11 12 12 12 12 13 13 14 14 14 14 13 13 14 14 14 15 15 15 15 15 15 15 14 15 15 15 15 15 15 15 15 15 15 15
10 11 10 11 10 10 11 11 11 12 12 13 13 13 13 13 14 15 14 14 14 15 15 15 15 15 15 16 17 17 16 16 16 16 17 16 16 16 16 16 16 16 16 16
11 11 11 11 11 11 11 12 12 13 13 13 14 14 13 14 15 16 15 14 15 15 16 16 16 16 17 17 17 18 17 17 17 18 18 17 17 17 17 18 18 17 17 17
12 12 13 13 12 12 12 12 13 13 14 14 14 15 15 16 16 16 16 16 16 16 16 16 17 17 17 18 19 19 19 19 19 19 19 18 18 18 19 19 19 19 18 18
13 14 14 14 14 14 14 14 14 14 14 15 14 16 16 16 17 17 16 16 16 16 17 17 17 18 18 19 20 20 20 20 20 20 20 20 20 20 21 20 20 20 21 21
13 14 15 15 15 15 14 14 14 14 15 15 15 16 16 16 17 17 16 17 17 17 18 18 18 18 19 20 20 21 21 21 21 21 21 21 22 22 22 22 21 22 22 22
14 14 15 15 16 15 14 15 15 15 16 17 17 17 17 17 17 17 17 18 18 18 17 18 18 19 19 19 19 20 21 21 22 22 22 23 23 23 24 24 23 23 23 23
14 15 15 15 15 16 15 15 15 16 17 17 18 18 18 17 17 17 18 18 18 18 18 17 18 18 18 18 19 19 20 21 22 23 23 23 24 24 24 25 24 24 24 25
14 15 15 15 16 17 17 17 17 17 17 18 18 18 18 18 17 17 18 18 18 18 17 18 18 19 19 19 19 20 20 21 22 22 23 24 24 25 25 25 25 25 26 26
14 15 15 15 15 16 17 17 18 18 18 18 18 19 19 18 18 17 17 17 17 17 18 19 19 20 20 20 20 20 20 21 21 22 23 24 25 25 25 25 26 26 27 27
14 15 16 16 16 17 18 18 19 20 19 19 19 18 20 18 17 17 17 17 17 18 19 20 20 20 21 21 21 21 21 21 21 22 23 24 25 26 26 25 25 26 27 27
15 16 17 17 17 18 19 20 20 20 20 20 20 19 19 17 17 17 17 17 18 18 19 20 21 21 22 22 22 21 21 21 22 22 23 24 25 26 26 26 27 28 28 29
16 17 18 18 19 19 19 20 21 21 21 20 20 19 19 19 18 19 19 19 19 19 20 20 21 22 22 22 22 22 22 22 23 23 24 24 25 26 26 27 28 28 29 29
18 18 19 20 20 20 19 20 21 22 21 21 20 20 19 20 20 20 20 20 20 21 21 21 22 22 23 23 24 24 24 24 24 25 25 25 26 27 27 27 28 29 29 29
20 21 21 21 21 21 21 20 22 22 22 22 22 21 20 20 21 21 21 21 21 21 22 22 23 23 24 24 25 25 25 25 25 26 26 27 27 28 28 28 28 29 30 30
21 22 22 22 22 23 22 21 22 23 22 23 23 22 22 21 21 22 22 22 22 22 23 23 24 24 24 25 25 26 26 27 27 28 28 28 28 28 29 28 29 29 30 31
23 23 24 24 24 25 22 22 23 23 23 24 24 23 23 23 23 23 23 23 23 24 24 25 25 25 25 25 26 26 27 28 28 29 29 29 29 29 29 29 30 31 31 31
24 24 25 25 26 25 24 23 23 24 24 25 26 25 25 24 23 24 24 24 25 25 25 25 25 25 25 26 26 26 27 27 28 29 29 30 29 29 29 30 30 31 31 32
25 25 26 26 26 26 25 24 24 25 25 24 25 26 25 25 25 25 25 25 25 25 26 26 27 26 26 26 26 27 27 27 27 28 29 29 29 30 30 31 31 31 32 33
25 26 26 26 27 27 26 25 25 26 26 25 26 25 25 25 25 26 26 26 26 26 26 27 27 27 27 27 27 27 27 27 27 27 28 29 29 30 31 31 31 32 33 34
25 26 26 26 27 26 26 26 26 26 26 26 27 27 27 26 26 26 26 27 27 27 27 27 27 28 28 28 27 27 28 28 28 28 29 29 29 30 31 32 32 33 34 34
25 26 27 27 27 27 27 27 27 27 27 27 28 28 28 28 28 28 28 28 28 28 28 28 28 29 29 29 29 28 29 29 29 29 30 30 30 31 31 31 32 33 34 33
26 27 28 28 28 28 28 27 28 28 28 28 28 29 29 29 29 29 29 29 29 29 29 29 30 30 30 30 30 30 30 30 30 31 31 31 31 32 32 32 32 33 33 33
27 28 28 28 28 29 29 29 29 29 29 28 29 30 30 30 30 30 30 30 31 30 30 30 30 30 30 30 30 30 31 31 31 31 32 32 32 32 32 33 32 33 34 33
27 28 28 28 28 29 29 30 30 30 29 30 30 30 30 31 31 31 31 31 31 31 31 31 31 31 31 31 31 30 31 31 31 32 32 33 32 32 32 33 33 34 34 34
Wind_Direction
250 252 253 251 249 247 248 246 244 247 248 246 245 245 245 242 240 238 240 245 246 245 247 251 252 254 255 255 256 259 263 265 263 264 265 268 268 269 270 270 271 274 278 281
250 252 252 250 247 246 248 247 247 249 250 251 249 248 248 245 244 244 246 251 253 251 250 252 253 255 256 255 256 258 262 264 263 264 265 268 271 271 272 273 274 276 279 281
250 251 249 247 248 247 248 248 249 251 253 255 254 249 248 248 248 248 251 254 257 256 255 255 256 258 258 258 257 257 259 261 262 264 267 270 272 275 275 273 275 277 279 282
249 250 248 247 247 248 249 250 252 254 255 256 255 255 252 252 253 253 255 258 259 259 258 256 256 258 260 262 261 258 258 260 262 264 267 269 271 273 275 275 276 278 278 280
250 249 247 248 248 249 251 254 255 258 259 260 258 258 257 257 257 257 258 261 260 259 259 258 258 259 261 262 262 262 261 261 262 262 264 266 270 272 275 278 277 277 279 281
252 250 248 246 247 249 253 256 258 260 262 261 262 262 261 259 261 261 262 262 262 260 258 259 261 262 262 262 263 263 262 261 261 262 263 264 269 273 276 277 278 279 280 283
257 254 250 248 248 249 253 257 260 262 262 261 261 261 263 261 262 265 265 263 263 263 263 263 263 264 265 264 264 265 265 264 263 263 263 264 268 272 276 278 279 280 281 284
258 256 253 251 250 251 251 254 257 260 262 263 263 263 265 264 266 267 267 264 263 263 264 265 265 267 269 269 269 268 268 267 266 264 265 266 269 272 275 277 279 280 281 284
259 258 255 252 250 251 252 254 257 261 263 265 264 266 267 267 268 267 265 264 262 263 264 265 266 267 269 270 270 271 269 268 267 266 267 268 270 273 274 276 277 278 280 282
263 259 256 254 253 253 254 258 260 261 264 267 268 268 269 270 270 268 267 265 265 264 265 265 267 269 270 271 272 273 273 270 268 267 268 270 271 272 273 276 277 277 280 282
267 261 259 259 254 254 255 257 259 262 264 267 268 267 268 269 271 270 268 267 265 265 266 266 268 270 271 272 273 275 275 274 272 270 271 272 272 272 273 276 277 278 280 283
269 264 263 263 260 257 256 257 259 262 265 265 266 266 267 268 269 269 269 268 267 267 267 269 270 271 271 271 273 275 275 275 274 273 274 274 275 274 274 275 277 279 280 283
270 268 267 265 264 261 259 260 261 261 263 264 264 267 269 269 269 268 269 270 270 271 270 270 271 271 271 272 273 274 274 275 275 275 276 276 276 275 275 275 277 279 281 282
271 269 269 267 266 268 264 261 262 262 261 262 262 265 269 269 268 268 270 271 271 271 272 272 270 269 270 271 273 275 276 277 278 279 279 279 279 278 277 275 277 279 281 282
270 270 269 268 267 268 268 262 260 261 263 264 263 264 266 267 268 269 270 270 270 271 272 272 271 270 270 270 272 274 276 277 279 280 281 282 282 281 280 278 277 279 281 282
269 271 271 270 270 270 270 266 261 260 262 264 264 265 267 268 268 269 269 270 272 272 271 271 271 273 273 273 272 272 275 277 279 280 281 283 283 283 282 279 278 279 280 281
269 270 271 271 272 271 270 269 264 262 262 263 265 266 266 268 269 269 270 271 272 272 273 273 273 274 274 274 274 273 274 276 279 280 282 283 282 283 283 281 280 280 281 282
270 271 272 272 273 271 272 270 265 264 263 263 264 265 265 265 267 269 270 271 272 272 274 275 275 276 275 274 275 275 276 277 279 281 282 285 284 282 283 284 283 282 282 283
271 271 272 273 273 273 270 269 267 265 264 264 265 266 267 268 268 268 269 271 272 273 274 275 276 276 276 276 277 277 278 279 281 282 282 283 284 283 284 285 285 284 284 284
271 271 271 272 273 272 273 271 269 267 265 265 265 264 267 269 269 270 271 272 273 275 276 276 276 276 276 276 277 278 278 280 282 284 284 284 285 284 284 286 286 286 285 286
271 270 271 272 273 273 273 272 270 268 266 264 264 265 267 268 270 270 271 273 274 275 276 276 277 276 276 277 278 278 278 279 281 284 285 286 287 287 286 286 287 287 286 286
274 272 272 273 273 274 274 271 269 269 268 265 265 266 269 270 270 270 271 273 275 275 276 277 278 277 278 278 279 279 279 280 281 284 286 287 288 288 288 287 287 288 288 287
273 273 274 275 273 273 272 271 271 270 268 267 266 267 269 270 271 271 273 275 276 277 276 277 278 278 278 278 279 279 280 281 282 284 286 287 288 289 289 288 288 289 289 287
272 272 274 276 274 272 272 270 271 271 270 268 267 267 268 270 270 272 273 275 276 277 277 277 277 277 278 278 279 280 280 281 281 283 285 286 287 288 288 289 289 289 289 287
273 274 275 274 274 272 272 270 270 270 270 270 269 268 268 269 270 272 274 274 275 276 277 278 277 276 277 277 279 279 280 280 280 282 285 287 287 287 287 288 290 290 289 287
275 275 275 274 273 273 273 272 270 269 268 269 270 268 268 269 271 273 275 275 274 275 276 277 277 277 277 277 278 279 280 280 281 283 285 286 287 287 288 289 289 290 290 287
Height
5840 5841 5841 5841 5842 5842 5842 5843 5843 5844 5843 5844 5844 5845 5845 5846 5846 5847 5848 5848 5849 5850 5850 5851 5851 5851 5852 5852 5852 5853 5853 5852 5852 5852 5852 5852 5851 5851 5850 5849 5849 5848 5847 5846
5837 5837 5838 5838 5839 5839 5839 5840 5841 5841 5840 5841 5841 5842 5842 5843 5843 5844 5844 5845 5845 5846 5847 5847 5848 5848 5848 5848 5849 5849 5849 5849 5849 5849 5848 5848 5848 5847 5846 5846 5845 5844 5843 5842
5833 5835 5835 5835 5835 5836 5837 5837 5838 5838 5838 5838 5838 5839 5839 5840 5840 5840 5841 5842 5842 5842 5843 5843 5844 5844 5844 5844 5845 5845 5845 5845 5845 5845 5845 5844 5844 5843 5843 5842 5841 5841 5840 5839
5829 5830 5831 5831 5832 5833 5833 5834 5834 5834 5834 5834 5835 5835 5836 5836 5836 5836 5837 5838 5838 5838 5839 5839 5839 5840 5840 5840 5840 5840 5841 5841 5841 5841 5841 5840 5840 5839 5838 5838 5837 5836 5835 5834
5825 5826 5827 5827 5828 5829 5830 5830 5830 5830 5830 5831 5831 5831 5832 5831 5832 5832 5833 5833 5833 5834 5834 5834 5835 5835 5835 5835 5835 5836 5836 5836 5836 5836 5836 5836 5835 5835 5834 5833 5832 5832 5831 5830
5821 5822 5822 5823 5824 5825 5826 5826 5826 5826 5826 5827 5827 5827 5827 5827 5828 5828 5828 5828 5829 5829 5829 5829 5830 5830 5830 5830 5830 5830 5830 5830 5830 5831 5831 5831 5830 5830 5829 5828 5828 5827 5826 5825
5817 5818 5818 5819 5820 5820 5821 5822 5823 5822 5822 5823 5823 5822 5824 5823 5823 5823 5823 5823 5823 5824 5824 5824 5824 5824 5824 5824 5824 5824 5824 5824 5825 5825 5825 5825 5825 5825 5824 5823 5822 5821 5821 5819
5813 5814 5814 5814 5815 5816 5817 5818 5819 5819 5819 5818 5818 5818 5819 5818 5818 5818 5818 5818 5818 5818 5819 5819 5819 5819 5818 5818 5818 5818 5818 5818 5818 5819 5819 5819 5819 5819 5818 5817 5817 5816 5815 5814
5808 5809 5809 5809 5810 5811 5812 5813 5814 5814 5814 5813 5813 5814 5813 5813 5813 5813 5813 5813 5813 5813 5813 5814 5814 5814 5813 5813 5813 5813 5812 5812 5812 5812 5812 5812 5812 5812 5812 5811 5810 5810 5808 5807
5803 5804 5805 5805 5806 5806 5808 5808 5809 5808 5808 5808 5808 5808 5809 5808 5808 5808 5807 5807 5807 5808 5808 5808 5809 5809 5808 5808 5808 5807 5807 5806 5806 5806 5806 5805 5805 5805 5805 5804 5803 5803 5802 5800
5798 5800 5800 5800 5801 5801 5802 5803 5803 5803 5803 5804 5804 5806 5803 5803 5803 5802 5802 5802 5802 5803 5803 5803 5803 5803 5803 5803 5802 5802 5801 5800 5800 5799 5799 5799 5798 5798 5798 5797 5796 5795 5795 5793
5794 5794 5794 5795 5795 5795 5796 5797 5797 5798 5798 5798 5798 5801 5797 5797 5797 5797 5797 5797 5797 5797 5798 5797 5797 5797 5797 5797 5796 5796 5795 5795 5794 5793 5792 5792 5791 5791 5790 5790 5789 5788 5787 5786
5789 5789 5790 5790 5791 5790 5790 5791 5791 5792 5792 5792 5792 5795 5792 5792 5792 5792 5792 5792 5792 5792 5792 5792 5791 5791 5791 5791 5790 5790 5789 5789 5788 5787 5786 5785 5784 5783 5782 5782 5781 5781 5779 5778
5784 5784 5785 5785 5784 5784 5784 5785 5785 5786 5786 5786 5787 5788 5787 5786 5786 5786 5786 5786 5786 5786 5786 5786 5785 5785 5785 5785 5784 5784 5783 5782 5781 5780 5779 5778 5777 5776 5775 5774 5773 5772 5771 5770
5778 5779 5778 5778 5778 5778 5778 5778 5778 5779 5780 5780 5781 5781 5782 5780 5780 5780 5780 5779 5779 5779 5779 5779 5779 5778 5778 5778 5777 5777 5776 5775 5774 5773 5772 5771 5769 5768 5767 5766 5765 5764 5762 5761
5772 5772 5772 5772 5772 5771 5771 5772 5772 5772 5773 5773 5774 5775 5775 5774 5774 5774 5773 5773 5773 5773 5772 5772 5772 5771 5771 5771 5770 5770 5769 5768 5767 5766 5765 5763 5762 5760 5759 5757 5756 5755 5753 5752
5766 5766 5766 5766 5765 5765 5765 5766 5765 5766 5766 5767 5767 5769 5768 5768 5768 5767 5767 5767 5766 5766 5765 5765 5765 5764 5764 5763 5763 5762 5761 5761 5760 5758 5757 5755 5754 5752 5750 5748 5747 5745 5744 5742
5760 5759 5759 5758 5759 5757 5761 5759 5759 5759 5759 5759 5759 5760 5761 5761 5761 5760 5760 5760 5759 5759 5758 5758 5757 5757 5756 5755 5755 5754 5754 5753 5752 5750 5749 5747 5746 5744 5742 5740 5738 5736 5734 5733
5753 5752 5751 5751 5750 5750 5753 5752 5751 5751 5752 5752 5752 5753 5753 5753 5754 5753 5753 5753 5752 5752 5751 5750 5750 5749 5748 5748 5747 5746 5745 5744 5743 5742 5741 5739 5737 5735 5733 5731 5729 5727 5725 5723
5745 5745 5744 5743 5742 5743 5746 5744 5743 5744 5744 5745 5744 5745 5746 5746 5747 5747 5746 5745 5745 5744 5743 5743 5742 5741 5740 5740 5739 5738 5737 5736 5735 5734 5732 5730 5729 5727 5725 5723 5720 5718 5716 5714
5738 5737 5736 5735 5734 5735 5736 5736 5736 5737 5737 5737 5736 5737 5738 5738 5739 5739 5738 5738 5737 5736 5735 5735 5734 5733 5732 5731 5731 5730 5729 5728 5727 5725 5724 5722 5720 5718 5716 5714 5711 5709 5707 5705
5730 5729 5729 5728 5727 5730 5728 5728 5728 5728 5727 5728 5728 5729 5729 5730 5729 5729 5729 5729 5729 5728 5727 5727 5726 5725 5724 5723 5722 5721 5720 5719 5718 5717 5715 5713 5711 5709 5707 5705 5702 5700 5697 5695
5722 5722 5721 5721 5722 5721 5720 5720 5719 5719 5719 5719 5720 5721 5721 5721 5721 5721 5721 5721 5720 5720 5719 5718 5717 5716 5715 5714 5714 5713 5712 5711 5709 5708 5706 5704 5702 5700 5698 5696 5693 5690 5688 5685
5714 5713 5712 5712 5712 5712 5711 5711 5711 5711 5711 5711 5711 5712 5712 5713 5713 5713 5713 5712 5712 5711 5710 5709 5708 5707 5706 5706 5705 5704 5703 5702 5700 5699 5697 5695 5693 5691 5689 5686 5684 5681 5678 5675
5705 5704 5704 5703 5704 5703 5702 5702 5702 5702 5702 5702 5703 5703 5703 5703 5703 5703 5703 5703 5703 5702 5702 5701 5699 5698 5697 5696 5696 5694 5693 5692 5691 5690 5688 5686 5684 5682 5679 5677 5674 5671 5668 5665
5696 5696 5695 5695 5695 5694 5694 5693 5692 5693 5693 5693 5693 5693 5694 5694 5694 5694 5694 5694 5693 5693 5692 5692 5690 5689 5688 5687 5686 5685 5684 5682 5681 5680 5678 5677 5675 5672 5670 5667 5665 5661 5659 5656